CZ-3B DEB, 40843

Orbit data source: Space-Track

CZ-3B DEB, 40843 is space debris in HEO originally from a launch on Mon, 19 Dec 2011 UTC launched from the Xichang Space Center, China (XSC). Debris objects in space refer to the collection of defunct objects orbiting the Earth. Examples of debris include non-operational satellites, rocket bodies, and fragments generated from explosions, collisions, or faulty payload assembly.

Loading next visibility...
CZ-3B DEB details
Identifier
40843, 2011-077Y
Orbit
HEO
Last TLE update4 days ago
Origin
Flag of CNCASC (CN / PRC)
ManufacturerCALT
MissionSpacecraft
Bus & MotorUnknown
MassUnknown
Launch date (UTC)
2011-12-19 (13 years ago)
Launch vehicleUnknown
Launch site
Xichang Space Center, China (XSC)
Object type
Payload
Rocket body
Debris
Shape & HBRUnknown
Radar Cross SectionMedium (>0.1 m² and <1 m²)

Expand to show TLE details & history

TLE from 4 days ago
0 CZ-3B DEB
1 40843U 11077Y   24357.10046086  .00002031  00000-0  10306-1 0  9998
2 40843  22.5291 320.5679 7290686 226.4298  44.0006  2.16630686 82423
Epoch: 2024-12-22T02:24Z
Definitive object data (Epoch: 2024-12-22T02:24:39.818Z)
Latitude
Longitude-166.74028°
Altitude17,416.337 km
Speed4.208 km/s
True Right ascension21h 22m 16s
True Declination0° 00' 00"
Sunlit
Object was in daylight at TLE epoch
Visualization TLE readout
Latitude18.34647°
Longitude-115.21742°
Altitude36,565.68 km
Speed1.663 km/s
Apparent Right ascension00h 33m 57s
Apparent Declination11° 52' 33"
Sunlit
Object is in daylight
Visualization observer readout
Local Sidereal Time10:27:56
Azimuth323.582° NNW
Elevation-30.522°
Doppler factor1
Orbital elements
Apogee altitude37,254.095 km
Perigee altitude458.689 km
Semi-major axis25,234.529 km
Eccentricity0.7290686
Inclination22.5291°
RAAN320.5679°
Arg. of periapsis226.4298°
True anomaly133.74768°
Mean anomaly44.0006°
Eccentric anomaly85.65299°
Mean motion0.54144 °/min
BSTAR0.010306
Orbital period664.89 mins
Loading maneuver chart data...
Loading historical data...
Loading historical data...
Loading historical data...
Loading historical data...
Loading historical data...
Loading historical data...
Loading historical data...

CZ-3B DEB Visibility forecast

Observer location: undefined°, undefined

Span
Click to sort rows by Start time (UTC) header in descending order
Start Az.
Max El. time (UTC)
Max El. Az.
Max El.
End time (UTC)
End Az.
449 mins2024-12-26 18:46:38.306Z93.44° ESE2024-12-27 00:30:38.306Z108.926° ESE35.97°2024-12-27 02:15:38.306Z94.622° ESE
|